Miscellaneous Local Product
Issued by NWS Hastings, NE

Home | Current Version | Previous Version | Text Only | Print | Product List | Glossary On
Versions: 1 2 3 4 5 6 7 8 9 10 11 12 13 14 15 16 17 18 19 20 21 22 23 24 25 26 27 28 29 30 31 32 33 34 35 36 37 38 39 40 41 42 43 44 45 46 47 48 49 50
000
AXUS43 KGID 301202
MISGRI

GID CWA HOURLY WEATHER ROUNDUP
NATIONAL WEATHER SERVICE HASTINGS NE
700 AM CDT THU JUL 30 2015

NOTE: "FAIR" INDICATES FEW OR NO CLOUDS BELOW 12,000 FEET WITH NO
SIGNIFICANT WEATHER AND/OR OBSTRUCTIONS TO VISIBILITY.

...SOUTH CENTRAL NEBRASKA...

CITY           SKY/WX    TMP DP  RH WIND       PRES   REMARKS
GRAND ISLAND   CLEAR     58  53  84 SW6       30.23R
HASTINGS       CLEAR     61  53  75 CALM      30.23S
KEARNEY        CLEAR     61  52  72 W6        30.24R
ORD            CLEAR     55  53  93 CALM      30.20S
YORK           CLEAR     55  54  94 CALM      30.22R
AURORA         CLEAR     57  54  90 W3        30.22R
LEXINGTON      CLEAR     55  53  93 CALM      30.25R
HOLDREGE       CLEAR     60  54  82 SW5       30.24S
HEBRON         CLEAR     56  54  92 CALM      30.22R

...NEBRASKA PANHANDLE...

CITY           SKY/WX    TMP DP  RH WIND       PRES   REMARKS
CHADRON        CLEAR     50  47  89 W6        30.25R
ALLIANCE       PTCLDY    56  50  80 NE3       30.26R
SCOTTSBLUFF    CLEAR     56  50  80 E5        30.25R
SIDNEY         CLEAR     57  55  93 SW9       30.29R

...WESTERN AND NORTH CENTRAL NEBRASKA...

CITY           SKY/WX    TMP DP  RH WIND       PRES   REMARKS
VALENTINE      CLEAR     57  51  80 SW10      30.21S
AINSWORTH      CLEAR     57  54  89 SW6       30.23R
ONEILL         CLEAR     58  54  86 SW5       30.21R
BROKEN BOW     CLEAR     63  56  78 SW8       30.23R
IMPERIAL       CLEAR     56  52  86 CALM      30.27S
NORTH PLATTE   LGT RAIN  56  52  86 CALM      30.26R
MCCOOK         CLEAR     56  52  86 CALM      30.25S

...EASTERN NEBRASKA...

CITY           SKY/WX    TMP DP  RH WIND       PRES   REMARKS
NORFOLK        CLEAR     57  54  89 SW5       30.19S
SO SIOUX CITY  CLEAR     64  56  75 W3        30.15S
TEKAMAH        CLEAR     61  59  93 S6        30.17R
COLUMBUS       CLEAR     61  52  72 W5        30.20S
ALBION         CLEAR     61  51  70 CALM      30.20S
OMAHA EPPLEY   CLEAR     65  60  84 E3        30.18R
OFFUTT AFB     CLEAR     58  57  99 CALM      30.17S
MILLARD        CLEAR     61  59  94 CALM      30.18S FOG
LINCOLN        CLEAR     59  56  89 S7        30.19F
NEBRASKA CITY  CLEAR     61  58  90 W8        30.19S
BEATRICE       CLEAR     56  56  98 CALM      30.20S
FALLS CITY     CLEAR     62  62 100 CALM      30.19R

...NORTHERN KANSAS...

CITY           SKY/WX    TMP DP  RH WIND       PRES   REMARKS
GOODLAND       CLEAR     57  55  93 S6        30.28S
HILL CITY      CLOUDY    68  63  84 CALM      30.25R
NORTON         SUNNY     57  54  88 CALM      30.24S
PHILLIPSBURG   CLEAR     63  63 100 NW3       30.24R FOG
SMITH CENTER   CLEAR     59  57  94 CALM      30.25R
HAYS           CLEAR     66  55  68 NE6       30.23R
RUSSELL        MOCLDY    65  61  87 NE6       30.21R
CONCORDIA      CLEAR     61  60  97 CALM      30.22R
SALINA         MOCLDY    69  64  84 NW6       30.21R
TOPEKA         CLEAR     65  65 100 CALM      30.19R



USA.gov is the U.S. government's official web portal to all federal, state and local government web resources and services.